STARLINK-1326 (45575 NORAD) Tracking and Keplerian Element Data

This shows tracking and keplerian element data for the satellite.

Feedback or suggestion? Click here.




ElementValue
Catalog45575
NameSTARLINK-1326
Epoch Orbit626
Epoch Day149.16667824
Epoch Year2020
RAAN224.9566
Inclination52.9976
Eccentricity9.84E-05
Argument of Perigee74.6598
Mean Anonmoly121.66
Mean Motion15.62730019
Decay Rate0.00043288
L11 45575U 20025AW 20149.16667824 .00043288 00000-0 47648-3 0 9998
L22 45575 52.9976 224.9566 0000984 74.6598 121.6600 15.62730019 6264

Live tracking and technical data element details for STARLINK-1326 (NORAD 45575). STARLINK-1326 can be tracked NOW for your location showing map with azimuth and elevation plus other details from your city location.

Track the satellite on the map from your city or location and see movement details for azimuth, elevation, latitude, longitude, range, height, and movement on the map or in text.







IsCatalogInMostPopularTable: catalog: 45575, numindb: 6
Update: records affected: 1



GetName: 45575 STARLINK-1326

Hit Count: updated at: Sat, 30 May 2020 14:14:09 GMT